timestamp,wind_dir_avg,wind_spd_avg,wind_spd_max_dir,wind_spd_gust,battery_voltage,lat,long
2020-11-09 00:04:01+00:00,270.0,5.58,269.0,6.63,12.65,47.59359,-54.27349
2020-11-09 00:14:01+00:00,267.0,5.75,267.0,6.86,12.65,47.59359,-54.27349
2020-11-09 00:24:01+00:00,270.0,6.01,273.0,6.64,12.65,47.59359,-54.27349
2020-11-09 00:34:01+00:00,267.0,6.07,267.0,6.94,12.65,47.59359,-54.27349
2020-11-09 00:44:01+00:00,268.0,6.22,267.0,6.97,12.65,47.59359,-54.27349
2020-11-09 00:54:01+00:00,273.0,6.25,272.0,7.31,12.65,47.59359,-54.27349
2020-11-09 01:04:01+00:00,273.0,6.34,271.0,7.47,12.65,47.59359,-54.27349
2020-11-09 01:14:01+00:00,276.0,6.4,276.0,7.24,12.57,47.59359,-54.27349
2020-11-09 01:24:01+00:00,281.0,6.51,282.0,7.75,12.57,47.59359,-54.27349
2020-11-09 01:34:01+00:00,282.0,5.93,285.0,6.59,12.57,47.59359,-54.27349
2020-11-09 01:44:01+00:00,289.0,5.47,291.0,6.61,12.57,47.59359,-54.27349
2020-11-09 01:54:01+00:00,290.0,5.11,287.0,5.89,12.57,47.59359,-54.27349
2020-11-09 02:04:01+00:00,286.0,5.83,290.0,6.72,12.57,47.59359,-54.27349
2020-11-09 02:14:01+00:00,287.0,5.38,288.0,6.22,12.57,47.59359,-54.27349
2020-11-09 02:24:01+00:00,288.0,5.53,284.0,6.9,12.57,47.59359,-54.27349
2020-11-09 02:34:01+00:00,285.0,5.91,283.0,6.88,12.57,47.59359,-54.27349
2020-11-09 02:44:01+00:00,285.0,6.99,287.0,7.96,12.57,47.59359,-54.27349
2020-11-09 02:54:01+00:00,287.0,6.18,285.0,7.1,12.57,47.59359,-54.27349
2020-11-09 03:04:01+00:00,291.0,5.41,290.0,6.45,12.57,47.59359,-54.27349
2020-11-09 03:14:01+00:00,295.0,4.92,301.0,5.87,12.57,47.59359,-54.27349
2020-11-09 03:24:01+00:00,290.0,4.71,289.0,5.6,12.57,47.59359,-54.27349
2020-11-09 03:34:01+00:00,291.0,4.76,285.0,5.47,12.57,47.59359,-54.27349
2020-11-09 03:44:01+00:00,297.0,5.59,293.0,6.45,12.57,47.59359,-54.27349
2020-11-09 03:54:01+00:00,289.0,5.14,288.0,5.74,12.57,47.59359,-54.27349
2020-11-09 04:04:01+00:00,283.0,4.87,286.0,5.56,12.57,47.59359,-54.27349
2020-11-09 04:14:01+00:00,282.0,4.47,285.0,4.92,12.57,47.59359,-54.27349
2020-11-09 04:24:01+00:00,282.0,5.54,278.0,6.6,12.57,47.59359,-54.27349
2020-11-09 04:34:01+00:00,279.0,5.66,279.0,6.64,12.57,47.59359,-54.27349
2020-11-09 04:44:01+00:00,272.0,4.65,275.0,5.68,12.57,47.59359,-54.27349
2020-11-09 04:54:01+00:00,277.0,5.77,280.0,6.94,12.57,47.59359,-54.27349
2020-11-09 05:04:01+00:00,268.0,5.88,275.0,7.41,12.57,47.59359,-54.27349
2020-11-09 05:14:01+00:00,267.0,6.3,263.0,7.26,12.49,47.59359,-54.27349
2020-11-09 05:24:01+00:00,276.0,6.35,281.0,7.52,12.49,47.59359,-54.27349
2020-11-09 05:34:01+00:00,285.0,7.07,285.0,8.5,12.49,47.59359,-54.27349
2020-11-09 05:44:01+00:00,279.0,5.36,273.0,6.34,12.49,47.59359,-54.27349
2020-11-09 05:54:01+00:00,272.0,5.84,273.0,7.0,12.49,47.59359,-54.27349
2020-11-09 06:04:01+00:00,282.0,5.4,285.0,6.72,12.49,47.59359,-54.27349
2020-11-09 06:14:01+00:00,301.0,5.06,299.0,5.82,12.49,47.59359,-54.27349
2020-11-09 06:24:01+00:00,273.0,5.07,269.0,6.41,12.49,47.59359,-54.27349
2020-11-09 06:34:01+00:00,276.0,4.89,273.0,6.08,12.49,47.59359,-54.27349
2020-11-09 06:44:01+00:00,284.0,4.97,283.0,5.53,12.49,47.59359,-54.27349
2020-11-09 06:54:01+00:00,288.0,5.3,286.0,6.09,12.49,47.59359,-54.27349
2020-11-09 07:04:01+00:00,273.0,5.23,269.0,5.97,12.49,47.59359,-54.27349
2020-11-09 07:14:01+00:00,278.0,5.19,278.0,5.68,12.49,47.59359,-54.27349
2020-11-09 07:24:01+00:00,286.0,5.48,278.0,6.51,12.49,47.59359,-54.27349
2020-11-09 07:34:01+00:00,293.0,4.86,298.0,6.24,12.49,47.59359,-54.27349
2020-11-09 07:44:01+00:00,298.0,4.27,304.0,4.88,12.49,47.59359,-54.27349
2020-11-09 07:54:01+00:00,292.0,4.07,287.0,5.08,12.49,47.59359,-54.27349
2020-11-09 08:04:01+00:00,279.0,4.94,280.0,5.54,12.49,47.59359,-54.27349
2020-11-09 08:14:01+00:00,285.0,4.09,293.0,4.77,12.49,47.59359,-54.27349
2020-11-09 08:24:01+00:00,290.0,3.57,288.0,4.34,12.49,47.59359,-54.27349
2020-11-09 08:34:01+00:00,269.0,3.86,270.0,4.6,12.49,47.59359,-54.27349
2020-11-09 08:44:01+00:00,282.0,3.08,272.0,3.9,12.49,47.59359,-54.27349
2020-11-09 08:54:01+00:00,289.0,3.51,289.0,4.2,12.49,47.59359,-54.27349
2020-11-09 09:04:01+00:00,272.0,4.16,275.0,4.65,12.49,47.59359,-54.27349
2020-11-09 09:14:01+00:00,282.0,3.89,279.0,4.96,12.41,47.59359,-54.27349
2020-11-09 09:24:01+00:00,263.0,5.33,257.0,6.36,12.41,47.59359,-54.27349
2020-11-09 09:34:01+00:00,268.0,4.39,271.0,5.27,12.41,47.59359,-54.27349
2020-11-09 09:44:01+00:00,270.0,4.84,265.0,6.08,12.41,47.59359,-54.27349
2020-11-09 09:54:01+00:00,261.0,4.79,252.0,5.65,12.41,47.59359,-54.27349
2020-11-09 10:04:01+00:00,264.0,5.69,262.0,6.39,12.41,47.59359,-54.27349
2020-11-09 10:14:01+00:00,261.0,5.04,263.0,5.85,12.41,47.59359,-54.27349
2020-11-09 10:24:01+00:00,256.0,6.15,256.0,7.61,12.41,47.59359,-54.27349
2020-11-09 10:34:01+00:00,251.0,6.12,250.0,7.21,12.41,47.59359,-54.27349
2020-11-09 10:44:01+00:00,257.0,7.13,263.0,8.18,12.41,47.59359,-54.27349
2020-11-09 10:54:01+00:00,262.0,7.34,265.0,8.19,12.41,47.59359,-54.27349
2020-11-09 11:04:01+00:00,267.0,6.16,268.0,7.13,12.41,47.59359,-54.27349
2020-11-09 11:14:01+00:00,254.0,6.08,255.0,6.85,12.57,47.59359,-54.27349
2020-11-09 11:24:01+00:00,261.0,5.11,264.0,6.21,12.57,47.59359,-54.27349
2020-11-09 11:34:01+00:00,258.0,4.97,252.0,6.09,12.57,47.59359,-54.27349
2020-11-09 11:44:01+00:00,270.0,5.48,271.0,6.77,12.57,47.59359,-54.27349
2020-11-09 11:54:01+00:00,261.0,5.92,264.0,7.04,12.57,47.59359,-54.27349
2020-11-09 12:04:01+00:00,260.0,5.05,264.0,6.09,12.57,47.59359,-54.27349
2020-11-09 12:14:01+00:00,264.0,5.51,270.0,6.87,13.68,47.59359,-54.27349
2020-11-09 12:24:01+00:00,276.0,5.73,279.0,7.33,13.68,47.59359,-54.27349
2020-11-09 12:34:01+00:00,268.0,5.94,267.0,8.32,13.68,47.59359,-54.27349
2020-11-09 12:44:01+00:00,270.0,6.47,278.0,7.49,13.68,47.59359,-54.27349
2020-11-09 12:54:01+00:00,265.0,6.24,268.0,7.07,13.68,47.59359,-54.27349
2020-11-09 13:04:01+00:00,264.0,6.56,258.0,7.65,13.68,47.59359,-54.27349
2020-11-09 13:14:01+00:00,263.0,8.55,265.0,10.19,13.68,47.59359,-54.27349
2020-11-09 13:24:01+00:00,274.0,7.97,273.0,8.71,13.68,47.59359,-54.27349
2020-11-09 13:34:01+00:00,275.0,8.98,274.0,10.54,13.68,47.59359,-54.27349
2020-11-09 13:44:01+00:00,278.0,10.05,276.0,11.22,13.68,47.59359,-54.27349
2020-11-09 13:54:01+00:00,286.0,11.01,290.0,12.75,13.68,47.59359,-54.27349
2020-11-09 14:04:01+00:00,276.0,9.86,276.0,11.36,13.68,47.59359,-54.27349
2020-11-09 14:14:01+00:00,282.0,10.55,280.0,11.8,13.68,47.59359,-54.27349
2020-11-09 14:24:01+00:00,277.0,10.3,266.0,12.93,13.68,47.59359,-54.27349
2020-11-09 14:34:01+00:00,276.0,8.81,283.0,10.01,13.68,47.59359,-54.27349
2020-11-09 14:44:01+00:00,273.0,10.6,277.0,12.59,13.68,47.59359,-54.27349
2020-11-09 14:54:01+00:00,268.0,8.56,264.0,9.67,13.68,47.59359,-54.27349
2020-11-09 15:04:01+00:00,269.0,7.95,267.0,8.8,13.68,47.59359,-54.27349
2020-11-09 15:14:01+00:00,266.0,11.49,267.0,13.0,13.05,47.59359,-54.27349
2020-11-09 15:24:01+00:00,266.0,9.53,272.0,10.85,13.05,47.59359,-54.27349
2020-11-09 15:34:01+00:00,263.0,7.69,264.0,8.74,13.05,47.59359,-54.27349
2020-11-09 15:44:01+00:00,271.0,7.94,276.0,9.14,13.05,47.59359,-54.27349
2020-11-09 15:54:01+00:00,261.0,7.85,263.0,8.92,13.05,47.59359,-54.27349
2020-11-09 16:04:01+00:00,261.0,8.08,260.0,8.93,13.05,47.59359,-54.27349
2020-11-09 16:14:01+00:00,264.0,7.3,264.0,8.16,12.81,47.59359,-54.27349
2020-11-09 16:24:01+00:00,245.0,6.44,250.0,9.27,12.81,47.59359,-54.27349
2020-11-09 16:34:01+00:00,251.0,8.03,251.0,9.28,12.81,47.59359,-54.27349
2020-11-09 16:44:01+00:00,247.0,6.74,247.0,7.42,12.81,47.59359,-54.27349
2020-11-09 16:54:01+00:00,257.0,7.5,255.0,8.41,12.81,47.59359,-54.27349
2020-11-09 17:04:01+00:00,247.0,6.84,245.0,7.88,12.81,47.59359,-54.27349
2020-11-09 17:14:01+00:00,246.0,6.9,251.0,8.17,12.73,47.59359,-54.27349
2020-11-09 17:24:01+00:00,251.0,6.62,254.0,7.44,12.73,47.59359,-54.27349
2020-11-09 17:34:01+00:00,249.0,8.24,251.0,9.16,12.73,47.59359,-54.27349
2020-11-09 17:44:01+00:00,248.0,7.63,251.0,8.27,12.73,47.59359,-54.27349
2020-11-09 17:54:01+00:00,257.0,7.62,263.0,8.54,12.73,47.59359,-54.27349
2020-11-09 18:04:01+00:00,246.0,7.32,241.0,8.84,12.73,47.59359,-54.27349
2020-11-09 18:14:01+00:00,250.0,6.82,251.0,7.73,12.73,47.59359,-54.27349
2020-11-09 18:24:01+00:00,245.0,7.36,246.0,8.41,12.73,47.59359,-54.27349
2020-11-09 18:34:01+00:00,251.0,7.2,251.0,7.78,12.73,47.59359,-54.27349
2020-11-09 18:44:01+00:00,250.0,7.15,252.0,8.07,12.73,47.59359,-54.27349
2020-11-09 18:54:01+00:00,259.0,7.04,265.0,7.78,12.73,47.59359,-54.27349
2020-11-09 19:04:01+00:00,253.0,6.22,252.0,6.89,12.73,47.59359,-54.27349
2020-11-09 19:14:01+00:00,250.0,6.5,253.0,7.08,12.65,47.59359,-54.27349
2020-11-09 19:24:01+00:00,252.0,6.88,255.0,7.73,12.65,47.59359,-54.27349
2020-11-09 19:34:01+00:00,255.0,6.84,256.0,7.81,12.65,47.59359,-54.27349
2020-11-09 19:44:01+00:00,248.0,6.12,248.0,6.63,12.65,47.59359,-54.27349
2020-11-09 19:54:01+00:00,244.0,5.29,248.0,6.29,12.65,47.59359,-54.27349
2020-11-09 20:04:01+00:00,236.0,6.32,237.0,7.55,12.65,47.59359,-54.27349
2020-11-09 20:14:01+00:00,237.0,6.39,231.0,7.2,12.65,47.59359,-54.27349
2020-11-09 20:24:01+00:00,250.0,6.53,255.0,7.1,12.65,47.59359,-54.27349
2020-11-09 20:34:01+00:00,240.0,6.4,234.0,7.03,12.65,47.59359,-54.27349
2020-11-09 20:44:01+00:00,249.0,6.53,246.0,7.36,12.65,47.59359,-54.27349
2020-11-09 20:54:01+00:00,251.0,7.01,251.0,8.29,12.65,47.59359,-54.27349
2020-11-09 21:04:01+00:00,247.0,6.9,248.0,7.73,12.65,47.59359,-54.27349
2020-11-09 21:14:01+00:00,251.0,6.2,249.0,6.79,12.57,47.59359,-54.27349
2020-11-09 21:24:01+00:00,255.0,6.59,257.0,7.63,12.57,47.59359,-54.27349
2020-11-09 21:34:01+00:00,248.0,6.17,246.0,7.09,12.57,47.59359,-54.27349
2020-11-09 21:44:01+00:00,253.0,5.89,247.0,7.16,12.57,47.59359,-54.27349
2020-11-09 21:54:01+00:00,256.0,6.4,256.0,7.34,12.57,47.59359,-54.27349
2020-11-09 22:04:01+00:00,254.0,5.45,253.0,6.31,12.57,47.59359,-54.27349
2020-11-09 22:14:01+00:00,254.0,5.4,253.0,6.22,12.57,47.59359,-54.27349
2020-11-09 22:24:01+00:00,256.0,5.24,262.0,5.9,12.57,47.59359,-54.27349
2020-11-09 22:34:01+00:00,263.0,5.21,260.0,6.12,12.57,47.59359,-54.27349
2020-11-09 22:44:01+00:00,258.0,5.47,255.0,6.09,12.57,47.59359,-54.27349
2020-11-09 22:54:01+00:00,263.0,5.53,257.0,6.0,12.57,47.59359,-54.27349
2020-11-09 23:04:01+00:00,267.0,5.31,268.0,6.16,12.57,47.59359,-54.27349
2020-11-09 23:14:01+00:00,270.0,5.44,271.0,5.89,12.57,47.59359,-54.27349
2020-11-09 23:24:01+00:00,256.0,4.8,253.0,5.59,12.57,47.59359,-54.27349
2020-11-09 23:34:01+00:00,262.0,4.58,264.0,5.24,12.57,47.59359,-54.27349
2020-11-09 23:44:01+00:00,267.0,4.86,271.0,5.47,12.57,47.59359,-54.27349
2020-11-09 23:54:01+00:00,254.0,4.81,252.0,5.47,12.57,47.59359,-54.27349
